User: anonymous   Login
Location: Sungai Laei
(2.6000°N, 113.7167°E)
Time: 14:36:58
(UTC+00:00)
Language:

CZ-2C R/B - Orbit

View from above orbital plane
View from above orbital plane
View from above satellite
View from above satellite

Ground track
Ground track

The orbit data is extracted from the following two-line orbital elements,

1 43173U 18011E   23356.66003008  .07972068  14337-5  60955-3 0  9991
2 43173  34.9660  91.8830 0007060   7.6961 104.5303 16.39180891331121
Epoch (UTC): 22 December 2023 15:50:26
Eccentricity: 0.0007060
inclination: 34.9660°
perigee height: 163 km
apogee height: 172 km
right ascension of ascending node: 91.8830°
argument of perigee: 7.6961°
revolutions per day: 16.39180891
mean anomaly at epoch: 104.5303°
orbit number at epoch: 33112

The dashed part of the orbit path shows where the satellite is in the earth's shadow,  

DLR